Location: Voyageurs National Park
(48.5020°N, 92.9292°W)
Time: 04:16:59
(UTC-06:00)

Cosmos 1743 Rocket - Pass Details

Date: 19 January 2018
Orbit: 605 x 633 km, 82.6° (Epoch: 23 February)

Event Time Altitude Azimuth Distance (km) Brightness Sun altitude
Rises 06:43:32 0° 345° (NNW) 2,873 6.7 -11.7°
Reaches altitude 10° 06:45:49 10° 339° (NNW) 1,965 5.8 -11.3°
Maximum altitude 06:49:57 46° 267° (W) 819 3.8 -10.7°
Drops below altitude 10° 06:54:06 10° 194° (SSW) 1,954 6.2 -10.0°
Sets 06:56:22 0° 188° (S) 2,856 7.1 -9.7°
